Виндхук

Намибия     22°34′02″S   17°05′14″E
темп.,
°C
ветер,
м/с
пор.,
м/с
влажн.,
%
обл.,
%
осадки,
мм/ч
давл.,
гПа
погр.,
м
9 мая, вс
вс923:00+16юв510342 0.0 1020206
02:00+14юв47370 0.0 1020140
05:00+12вюв33440 0.0 102163
08:00+13вюв34440 0.0 1023117
11:00+19в34300 0.0 1022547
14:00+23св32250 0.0 10181934
17:00+23в21220 0.0 10172168
20:00+18вюв34320 0.0 102063
10 мая, пн
пн1023:00+16вюв45320 0.0 102278
02:00+14вюв33260 0.0 102237
05:00+13вюв33270 0.0 102224
08:00+13вюв33300 0.0 102440
11:00+20в34200 0.0 1022657
14:00+23в54110 0.0 10191453
17:00+23в44130 0.0 10181662
20:00+18вюв34200 0.0 102160
11 мая, вт
вт1123:00+16вюв34240 0.0 102260
02:00+14вюв33300 0.0 102240
05:00+13вюв32330 0.0 102226
08:00+14вюв22350 0.0 102432
11:00+21св45210 0.0 10231077
14:00+24св44160 0.0 10192053
17:00+24св33150 0.0 10182582
20:00+18в22250 0.0 102144
12 мая, ср
ср1223:00+16в11300 0.0 102217
02:00+14в22330 0.0 102218
05:00+13в11390 0.0 102112
08:00+14в22400 0.0 102222
11:00+21ссв33250 0.0 10211175
14:00+23св22180 0.0 10182480
17:00+24в12170 0.0 10172918
20:00+18в23255 0.0 101952
13 мая, чт
чт1323:00+16всв22294 0.0 102026
02:00+14всв12340 0.0 102047
05:00+13в22370 0.0 101916
08:00+14в22380 0.0 102120
11:00+21ссв44240 0.0 10201140
14:00+23с33190 0.0 10162677
17:00+23с33185 0.0 10152956
20:00+17св11294 0.0 101739